Вернуться в каталог

FENGYUN 1C DEB

АктивенSSO
NORAD 35220·DEBRIS·🇨🇳 China

Запущен May 10, 1999 с Taiyuan Satellite Launch Center

Loading…

Ближайшие Пролёты (ближайшие 24 часа)

TLE

УстаревающийSource: Space-Track

Эпоха: Sep 11, 2026, 04:19 UTC

1 35220U 99025DQC 26254.18053009  .00001888  00000-0  83170-3 0  9999
2 35220  99.0136 335.9790 0043065 244.4080 115.2644 14.24189668670597

Отслеживайте FENGYUN 1C DEB в реальном времени с AllMySat

Download on the App Store